Volver al catálogo

INTELSAT 4-F3

ActivoComunicacionesGEO
NORAD 5709·PAYLOAD· XX

Lanzado Dec 20, 1971 desde Cape Canaveral Space Force Station

Loading…

TLE

ActualizadoSource: Space-Track

Época: Sep 14, 2026, 13:25 UTC

1  5709U 71116A   26257.55963082 -.00000169  00000-0  00000+0 0  9993
2  5709   6.1862 290.0909 0009579 127.1124  59.5530  0.99618957119768

Sigue INTELSAT 4-F3 en tiempo real con AllMySat

Download on the App Store